Погода в Париже

Россия / Челябинская область     53°17′47″N   60°06′05″E
темп.,
°C
ветер,
м/с
пор.,
м/с
влажн.,
%
обл.,
%
осадки,
мм/ч
давл.,
гПа
погр.,
м
4 июля, пн
пн423:00+16св3471100 0.4 100464
02:00+14св3478100 0.1 100279
05:00+11ссв41098100 0.8 1002239
08:00+14св6891100 1.1 1002475
11:00+15св8108192 1.6 1002876
14:00+16ссв81078100 0.2 1003974
17:00+14св81185100 0.6 1004931
20:00+13св71282100 0.1 1005893
5 июля, вт
вт523:00+10ссв8138047 0.1 1007616
02:00+7ссв612885 0.0 1009473
05:00+5с411965 0.0 1010313
08:00+9с6872100 0.0 10101030
11:00+10ссв6775100 0.1 1011922
14:00+10ссв5780100 0.4 1011865
17:00+11ссв5775100 0.7 1011887
20:00+11ссв5779100 0.1 1011657
6 июля, ср
ср623:00+9ссв3784100 0.1 1012243
02:00+9ссв3682100 0.0 1012152
05:00+9с358246 0.0 1013130
08:00+12ссв35705 0.0 1013355
11:00+16св445112 0.0 10131653
14:00+16с3351100 0.0 10131439
17:00+17всв33515 0.0 10131002
20:00+16всв226456 0.0 101320
7 июля, чт
чт723:00+11юв2271100 0.0 101415
02:00+11ссз2384100 0.5 101543
05:00+10св3596100 1.8 1016179
08:00+11ссв1293100 3.8 1017104
11:00+16ссв446631 4.0 10171248
14:00+18ссв4559100 0.2 10171287
17:00+19ссв456294 0.3 10171224
20:00+17с3576100 0.1 1018120
8 июля, пт
пт823:00+13с33895 0.1 101941
02:00+12с34915 0.0 101951
05:00+12ссз34904 0.0 101956
08:00+16с34750 0.0 1020241
11:00+20с22610 0.0 1020989
14:00+22ссз33530 0.0 10181342
17:00+23ссз23500 0.0 10181505
20:00+21зюз00630 0.0 101711